Overview Statistics Trail Chart Weather Telemetry Raw packets
 

This is the latest recevied weather packets stored in our database for station/object KE5QKR. If no packets are shown the sender has not sent any weather packets the latest 10 day(s).

<< 99 100 101 102 103 104 105 >>
Time Temp. Humidity Pressure Rain* Wind** Luminosity Snow
1777208379 20.56° C 99% 1010.9 hPa 0 mm - 17 W/m² -
1777208076 20.56° C 99% 1010.7 hPa 0 mm - 18 W/m² -
1777207772 20.56° C 99% 1011 hPa 0 mm - 20 W/m² -
1777207467 20.56° C 99% 1011.1 hPa 0 mm - 22 W/m² -
1777207166 20.56° C 99% 1011.1 hPa 0 mm - 23 W/m² -
1777206862 20.56° C 99% 1011 hPa 0 mm - 20 W/m² -
1777206558 20.56° C 99% 1010.8 hPa 0 mm - 18 W/m² -
1777206254 20.56° C 99% 1010.8 hPa 0 mm - 16 W/m² -
1777205953 20.56° C 99% 1010.5 hPa 0 mm - 14 W/m² -
1777205650 20.56° C 99% 1010.4 hPa 0 mm - 12 W/m² -
1777205347 20.56° C 99% 1010.3 hPa 0 mm - 11 W/m² -
1777205042 20.56° C 99% 1010.2 hPa 0 mm - 10 W/m² -
1777204738 20.56° C 99% 1010.1 hPa 0 mm - 8 W/m² -
1777204433 20.56° C 99% 1010.1 hPa 0 mm - 8 W/m² -
1777204130 20.56° C 99% 1010.2 hPa 0 mm - 7 W/m² -
1777203825 20.56° C 99% 1010 hPa 0 mm - 6 W/m² -
1777203525 20.56° C 99% 1010 hPa 0 mm - 4 W/m² -
1777203221 20.56° C 99% 1009.8 hPa 0 mm - 2 W/m² -
1777202919 20.56° C 99% 1009.8 hPa 0 mm - 1 W/m² -
1777202619 20.56° C 99% 1009.7 hPa 0 mm - 1 W/m² -
1777202318 20.56° C 99% 1009.7 hPa 0 mm - 1 W/m² -
1777202014 20.56° C 99% 1009.8 hPa 0 mm - 0 W/m² -
1777201711 20.56° C 99% 1009.6 hPa 0 mm - 0 W/m² -
1777201407 20.56° C 99% 1009.5 hPa 0 mm - 0 W/m² -
1777201103 20.56° C 99% 1009.3 hPa 0 mm - 0 W/m² -

* Rain latest hour (hover to see other rain measurements)
** Current wind speed in m/s (hover to see current wind gust speed)